Powrót do katalogu

IRIDIUM 126

AktywnyŁącznośćPO
NORAD 42809·PAYLOAD·🇺🇸 United States

Wystrzelony Jun 25, 2017 z Vandenberg Space Force Base

Loading…

Następne Przeloty (najbliższe 24 godziny)

TLE

ŚwieżeSource: CelesTrak SupGP

Epoka: Sep 14, 2026, 21:29 UTC

1 42809C 17039G   26257.89548611 -.00000026  00000+0 -91311-5 0  2573
2 42809  86.3976 316.1672 0002350  95.3472  31.3548 14.34216814    19

Śledź IRIDIUM 126 w czasie rzeczywistym z AllMySat

Download on the App Store